Location: Newark
(45.8667°N, 9.7333°E)
Time: 07:44:47
(UTC+00:00)

A-11 Canister half - Pass Details

Date: 23 January 2020
Orbit: 1517 x 1683 km, 47.2° (Epoch: 17 February)

Event Time Altitude Azimuth Distance (km) Brightness Sun altitude
Rises 21:03:02 0° 183° (S) 4,756 - -49.5°
Reaches altitude 10° 21:07:24 10° 166° (SSE) 3,746 - -50.1°
Maximum altitude 21:13:14 18° 127° (SE) 3,101 - -51.0°
Drops below altitude 10° 21:18:59 10° 88° (E) 3,696 - -51.8°
Sets 21:23:12 0° 72° (ENE) 4,670 - -52.5°
